Location: *
(45.9500°N, 9.0833°E)
Time: 07:20:02
(UTC+00:00)

Cosmos 2074 Rocket - Pass Details

Date: 03 March 2021
Orbit: 967 x 986 km, 82.9° (Epoch: 18 April)

Event Time Altitude Azimuth Distance (km) Brightness Sun altitude
Rises 17:33:07 0° 177° (S) 3,676 7.1 -4.3°
Reaches altitude 10° 17:35:39 10° 175° (S) 2,730 6.4 -4.7°
Maximum altitude 17:41:50 68° 94° (E) 1,056 4.0 -5.8°
Drops below altitude 10° 17:48:03 10° 13° (NNE) 2,735 6.2 -6.9°
Sets 17:50:34 0° 11° (NNE) 3,684 6.9 -7.3°
